星链-30254 (STARLINK-30254 )

导读

STARLINK-30254是美国SpaceX公司星链星座的卫星成员,于2023年8月8日发射入轨,属于低轨互联网通信卫星。它依托猎鹰9号火箭执行部署任务,单星重量约数百公斤,运行在500余公里的近地轨道,主要为全球提供高速宽带互联网服务,支撑星链星座全球覆盖的通信组网能力,是星链大规模星座部署中的组成单元,服务民用通信、移动互联等多场景应用。

基本信息
目录编号:
57533
目录名称:
STARLINK-30254
国际标识:
2023-115N
轨道中心:
EARTH
卫星名称:
星链-30254
卫星全名:
星链-30254 (STARLINK-30254 )
卫星状态:
在轨 (已飞行1045 天)
发射日期:
2023-08-08 UTC
国别 :
美国 (US)
星等 :
--
轨道信息
数据来源 国际轨道数据 AOE轨道数据
星历时间 2026-06-18T14:39:50+0800
6小时前
查看轨道信息
2026-06-16T11:00:00+0800
2天前
查看轨道信息
半长轴 6861.205km 6861.221km
偏心率 0.0001699 0.0001227
轨道倾角 43.002° 43.002°
近地点辐角 280.315° 253.607°
升交点赤经 255.095° 267.257°
平近点角 79.751° 134.423°
近地点 481.902km 482.242km
远地点 484.234km 483.926km
周期 94.267分钟 94.267分钟
每日圈数 15.27574 15.275686
详细信息
固有亮度:
5
最大亮度:
0.3
卫星平台:
Starlink v2.0 mini
覆盖范围:
全球
运营商:
太空探索技术公司
运营商所在国:
美国
制造商(研发单位):
太空探索技术公司
制造商所在国:
美国
使用方式:
暂无
卫星简介
星链(Starlink)计划是由太空探索技术公司(SpaceX)提出的一个巨型低轨卫星互联网星座项目,计划在2019年至2024年间在太空搭建由约1.2万颗卫星组成的“星链”网络,其中1584颗将部署在地球上空550千米处的近地轨道,并从2020年开始工作。该卫星仍在工作。
2D轨道图
3D轨道图
轨道高度分析图
轨道倾角分析图
轨道综合分析图
查看轨道综合分析图